Location: Unspecified
(0.0000°N, 0.0000°E)
Time: 00:01:39
(UTC+00:00)

Transit 2A Rocket - All Passes

Search period start: 24 June 2017 00:00
Search period end: 04 July 2017 00:00
Orbit: 591 x 913 km, 66.7° (Epoch: 22 June)

Date Brightness Start Highest point End Pass type
(mag) Time Alt. Az. Time Alt. Az. Time Alt. Az.
24 Jun - 06:22:24 10° NNW 06:28:18 71° WSW 06:34:23 10° SSE daylight
24 Jun - 17:13:41 10° SSE 17:16:27 16° ESE 17:19:08 10° ENE daylight
24 Jun - 18:55:37 10° WSW 18:58:43 19° WNW 19:01:45 10° NNW visible
25 Jun - 05:40:08 10° N 05:45:57 60° ENE 05:51:58 10° SSE daylight
25 Jun - 07:26:46 10° W 07:28:28 11° WSW 07:30:11 10° SW daylight
25 Jun - 18:12:13 10° SW 18:16:25 45° WNW 18:20:30 10° N daylight
26 Jun - 04:58:30 10° N 05:03:38 31° ENE 05:08:54 10° SE visible
26 Jun - 06:41:26 10° WNW 06:46:02 23° WSW 06:50:44 10° SSW daylight
26 Jun - 17:29:43 10° SSW 17:34:07 71° ESE 17:38:21 10° NNE daylight
27 Jun - 04:17:56 10° NE 04:21:18 15° ENE 04:24:43 10° ESE visible
27 Jun - 05:58:01 10° NW 06:03:39 45° WSW 06:09:27 10° S daylight
27 Jun - 16:47:58 10° S 16:51:47 28° ESE 16:55:28 10° NE daylight
27 Jun - 18:33:19 10° W 18:34:00 10° WNW 18:34:41 10° WNW visible
28 Jun - 05:15:21 10° NNW 05:21:18 87° WSW 05:27:26 10° SSE visible
28 Jun - 16:07:39 10° SE 16:09:24 12° ESE 16:11:07 10° E daylight
28 Jun - 17:48:07 10° SW 17:51:41 25° WNW 17:55:11 10° NNW daylight
29 Jun - 04:33:17 10° N 04:38:58 48° ENE 04:44:50 10° SE visible
29 Jun - 06:18:17 10° W 06:21:27 14° WSW 06:24:37 10° SW daylight
29 Jun - 17:05:04 10° SSW 17:09:23 61° WNW 17:13:35 10° N daylight
30 Jun - 03:51:54 10° NNE 03:56:38 25° ENE 04:01:30 10° ESE visible
30 Jun - 05:33:58 10° NW 05:39:02 29° WSW 05:44:12 10° SSW visible
30 Jun - 16:22:48 10° S 16:27:04 51° ESE 16:31:13 10° NNE daylight
01 Jul - 03:12:05 10° NE 03:14:18 12° ENE 03:16:32 10° E visible
01 Jul - 04:50:51 10° NNW 04:56:40 56° WSW 05:02:38 10° S visible
01 Jul - 15:41:22 10° SSE 15:44:43 21° ESE 15:48:00 10° ENE daylight
01 Jul - 17:24:42 10° WSW 17:26:58 14° WNW 17:29:13 10° NW daylight
02 Jul - 04:08:22 10° NNW 04:14:20 76° ENE 04:20:26 10° SSE visible
02 Jul - 16:40:45 10° SW 16:44:39 33° WNW 16:48:29 10° N daylight
03 Jul - 03:26:29 10° N 03:32:00 39° ENE 03:37:37 10° SE visible
03 Jul - 05:10:26 10° WNW 05:14:26 18° WSW 05:18:28 10° SSW visible
03 Jul - 15:57:59 10° SSW 16:02:20 84° WNW 16:06:37 10° NNE daylight
